Location: Arbon
(43.0005°N, 0.7472°E)
Time: 18:30:05
(UTC+00:00)

Resurs 1-4 Rocket - Pass Details

Date: 07 August 2020
Orbit: 799 x 815 km, 98.6° (Epoch: 23 September)

Event Time Altitude Azimuth Distance (km) Brightness Sun altitude
Rises 01:31:32 0° 14° (NNE) 3,331 6.5 -27.3°
Reaches altitude 10° 01:33:53 10° 16° (NNE) 2,394 5.5 -27.1°
Maximum altitude 01:39:11 80° 103° (ESE) 819 2.0 -26.7°
Enters shadow 01:39:23 78° 137° (SE) 824 2.0 -26.7°
